Regional Weather Roundup
Issued by NWS

Home | Current Version | Previous Version | Graphics & Text | Print | Product List | Glossary On
Versions: 1 2 3 4 5 6 7 8 9 10 11 12 13 14 15 16 17 18 19 20 21 22 23 24 25 26 27 28 29 30 31 32 33 34 35 36 37 38 39 40 41 42 43 44 45 46 47 48 49 50
000
ASUS43 KOAX 131810
RWRNE

WEATHER ROUNDUP FOR NEBRASKA
NATIONAL WEATHER SERVICE OMAHA NE
1200 PM CST WED DEC 13 2017

NOTES: SATELLITE DATA IS BEING USED TO AUGMENT CLOUD COVER ABOVE
       12000 FEET.
       "FAIR" INDICATES FEW OR NO CLOUDS BELOW 12,000 FEET WITH NO
       SIGNIFICANT WEATHER AND/OR OBSTRUCTIONS TO VISIBILITY.


NEZ001>004-019>022-054>056-131900-
NEBRASKA PANHANDLE

CITY           SKY/WX    TMP DP  RH WIND       PRES   REMARKS
SCOTTSBLUFF    SUNNY     49  15  25 NW24G37   30.11F
6HR MIN TEMP:  33; 6HR MAX TEMP:  49;

ALLIANCE       SUNNY     47  17  30 NW25G33   30.05F
6HR MIN TEMP:  38; 6HR MAX TEMP:  47;

CHADRON        MOSUNNY   47  17  30 NW28G36   30.08F
6HR MIN TEMP:  37; 6HR MAX TEMP:  47;

GORDON         FAIR      45  22  40 NW25G32   30.02F
6HR MIN TEMP:  35; 6HR MAX TEMP:  45;

KIMBALL        SUNNY     46  14  27 NW21      30.12F
SIDNEY         SUNNY     49  14  24 NW25G38   30.09F
6HR MIN TEMP:  36; 6HR MAX TEMP:  49;

$$

NEZ057>060-069>072-079>082-131900-
SOUTHWEST NEBRASKA

CITY           SKY/WX    TMP DP  RH WIND       PRES   REMARKS
NORTH PLATTE   SUNNY     51  16  24 NW28G41   30.02R
6HR MIN TEMP:  27; 6HR MAX TEMP:  52;

IMPERIAL       SUNNY     51  15  23 NW25G33   30.04F
6HR MIN TEMP:  44; 6HR MAX TEMP:  51;

LEXINGTON      SUNNY     53  22  29 NW23G35   29.97F
MCCOOK         SUNNY     55  18  23 NW35G43   30.00F
6HR MIN TEMP:  39; 6HR MAX TEMP:  55;

OGALLALA       MOSUNNY   51  16  25 NW21      30.04F
$$

NEZ005>010-023>029-035>040-094-131900-
NORTH CENTRAL NEBRASKA

CITY           SKY/WX    TMP DP  RH WIND       PRES   REMARKS
VALENTINE      SUNNY     46  24  42 NW29G40   29.96S
6HR MIN TEMP:  42; 6HR MAX TEMP:  46;

AINSWORTH      SUNNY     45  27  49 NW26G36   29.95S
BROKEN BOW     SUNNY     50  22  33 N30G38    29.92F
6HR MIN TEMP:  47; 6HR MAX TEMP:  51;

O`NEILL        SUNNY     46  29  52 NW32      29.89S
ORD            SUNNY     49  24  37 NW29G44   29.89F
6HR MIN TEMP:  46; 6HR MAX TEMP:  52;

THEDFORD       SUNNY     47  23  39 NW28G39   29.99S
$$

NEZ041-046>049-061>064-073>077-083>087-131900-
SOUTH CENTRAL NEBRASKA

CITY           SKY/WX    TMP DP  RH WIND       PRES   REMARKS
GRAND ISLAND   SUNNY     52  25  35 NW24G39   29.90F
6HR MIN TEMP:  49; 6HR MAX TEMP:  52;

AURORA         SUNNY     52  24  33 NW28G38   29.89S
HASTINGS       SUNNY     52  22  30 NW28G39   29.91F
6HR MIN TEMP:  49; 6HR MAX TEMP:  52;

HEBRON         SUNNY     56  23  28 NW25G35   29.88S
HOLDREGE       SUNNY     53  26  35 N22G33    29.93F
KEARNEY        SUNNY     51  23  33 N25G33    29.93S
YORK           SUNNY     50  27  40 NW24G35   29.87R
$$

NEZ011>018-030>034-042>045-131900-
NORTHEAST NEBRASKA

CITY           SKY/WX    TMP DP  RH WIND       PRES   REMARKS
NORFOLK        SUNNY     48  29  47 NW24G38   29.80R
6HR MIN TEMP:  46; 6HR MAX TEMP:  53;

ALBION         SUNNY     49  28  42 NW24G33   29.86S
BLAIR          SUNNY     49  31  50 NW30G38   29.76S
COLUMBUS       SUNNY     50  28  42 NW30G37   29.83S
FREMONT        SUNNY     50  29  44 NW25G33   29.81S
TEKAMAH        SUNNY     49  30  48 NW30G40   29.78R
6HR MIN TEMP:  48; 6HR MAX TEMP:  52;

WAYNE          SUNNY     46  27  47 NW30G38   29.81R
$$

NEZ050>053-065>068-078-088>093-131900-
SOUTHEAST NEBRASKA

CITY           SKY/WX    TMP DP  RH WIND       PRES   REMARKS
LINCOLN        SUNNY     53  27  36 NW26G39   29.83F
6HR MIN TEMP:  50; 6HR MAX TEMP:  53;

OMAHA EPPLEY   MOSUNNY   52  29  41 NW25G37   29.75R
6HR MIN TEMP:  47; 6HR MAX TEMP:  52;

BEATRICE       SUNNY     55  27  33 NW32G40   29.84S
FALLS CITY     SUNNY     56  27  32 NW25G40   29.76F
6HR MIN TEMP:  39; 6HR MAX TEMP:  56;

NEBRASKA CITY  SUNNY     54  29  39 NW31G43   29.77F
PLATTSMOUTH    SUNNY     51  30  44 NW28G37   29.76S
$$

NEZ044-045-051>053-067-131900-
OMAHA AREA

CITY           SKY/WX    TMP DP  RH WIND       PRES   REMARKS
OMAHA EPPLEY   MOSUNNY   52  29  41 NW25G37   29.75R
6HR MIN TEMP:  47; 6HR MAX TEMP:  52;

BLAIR          SUNNY     49  31  50 NW30G38   29.76S
FREMONT        SUNNY     50  29  44 NW25G33   29.81S
MILLARD        SUNNY     52  31  45 NW24G31   29.78R
OFFUTT AFB     SUNNY     51  29  41 NW26G36   29.76R
PLATTSMOUTH    SUNNY     51  30  44 NW28G37   29.76S
WAHOO          FAIR      52  28  39 NW31G39   29.79S
$$




USA.gov is the U.S. government's official web portal to all federal, state and local government web resources and services.